User: anonymous   Login
Location: Newark
(31.5350°N, 35.0986°E)
Time: 14:21:11
(UTC+00:00)
Language:

S-56A Canister/Altair - Orbit

View from above orbital plane
View from above orbital plane
View from above satellite
View from above satellite

Ground track
Ground track

The orbit data is extracted from the following two-line orbital elements,

1    82U 61004B   19260.08245765  .00000025  00000-0  48809-4 0  9996
2    82  38.8582 134.3045 1174452 199.4070 155.8026 12.26050172774135
Epoch (UTC): 17 September 2019 01:58:44
Eccentricity: 0.1174452
inclination: 38.8582°
perigee height: 633 km
apogee height: 2499 km
right ascension of ascending node: 134.3045°
argument of perigee: 199.4070°
revolutions per day: 12.26050172
mean anomaly at epoch: 155.8026°
orbit number at epoch: 77413

The dashed part of the orbit path shows where the satellite is in the earth's shadow,  

DLR